Location: ??
(34.9170°N, 135.5016°E)
Time: 17:35:33
(UTC+00:00)

Okean 1-7 Rocket - Pass Details

Date: 29 October 2020
Orbit: 615 x 650 km, 82.5° (Epoch: 30 November)

Event Time Altitude Azimuth Distance (km) Brightness Sun altitude
Rises 20:19:08 0° 204° (SSW) 2,950 6.9 -12.4°
Reaches altitude 10° 20:21:31 10° 213° (SSW) 2,042 6.0 -11.9°
Maximum altitude 20:25:44 37° 281° (W) 1,003 4.1 -11.1°
Drops below altitude 10° 20:29:56 10° 349° (NNW) 2,039 6.0 -10.2°
Sets 20:32:19 0° 357° (N) 2,947 6.9 -9.7°
